AMC-6

Last updated on Tue Sep 22 2026 00:03:10 GMT+0000 (Coordinated Universal Time)

1 26580U 00067A 26264.49821735 .00000084 00000+0 00000+0 0 9993 2 26580 0.3920 83.5538 0004386 106.2027 214.9527 1.00273007 94854
UTC large
Height (km)
Speed (km/s)
/
Latitude / Longitude
Inclination (degrees)
Orbital Period (minutes)
Azimuth
Elevation
Range (km)
Doppler Factor

Next 0 passes for location: London (51.5072 / 0.1276)

No passes found over London.
AMC-6